Skip Page Navigation
NASA JPL Caltech
NASA Logo - Jet Propulsion Laboratory + View the NASA Portal
+ Near-Earth Object (NEO) Program
Search JPL
JPL Home Earth Solar System Stars & Galaxies Technology
JPL Solar System Dynamics
BODIES ORBITS EPHEMERIDES TOOLS PHYSICAL DATA DISCOVERY FAQ SITE MAP
JPL Small-Body Database Browser
Search: [ help ]  
5604 (1992 FE)
Classification: Aten [NEO, PHA]          SPK-ID: 2005604
Ephemeris | Orbit Diagram | Orbital Elements | Physical Parameters | Discovery Circumstances | Close-Approach Data ]

[ show orbit diagram ]
Orbital Elements at Epoch 2456400.5 (2013-Apr-18.0) TDB
Reference: JPL 87 (heliocentric ecliptic J2000)
 Element Value Uncertainty (1-sigma)   Units 
e .4052293982158804 5.0824e-08  
a .9269221152523881 1.9517e-09 AU
q .551306024295672 4.6495e-08 AU
i 4.793978435031126 3.6161e-06 deg
node 311.9293999504586 5.8043e-05 deg
peri 82.48878280875653 5.6521e-05 deg
M 322.3174063023804 1.6364e-05 deg
tp 2456434.619415278627
(2013-May-22.11941528)
1.4922e-05 JED
period 325.9592372772822
0.89
1.0295e-06
2.819e-09
d
yr
n 1.104432575701975 3.4882e-09 deg/d
Q 1.302538206209104 2.7426e-09 AU
  Orbit Determination Parameters
   # obs. used (total)      335  
   # delay obs. used      3  
   # Doppler obs. used      0  
   data-arc span      9865 days (27.01 yr)  
   first obs. used      1985-04-17  
   last obs. used      2012-04-20  
   planetary ephem.      DE405  
   SB-pert. ephem.      SB405-CPV-2  
   condition code      0  
   fit RMS      .62568  
   data source      ORB  
   producer      Otto Matic  
   solution date      2013-Apr-29 15:37:43  

Additional Information
 Earth MOID = .0342769 AU 
 T_jup = 6.383 
[ show covariance matrix ]

Ephemeris | Orbit Diagram | Orbital Elements | Physical Parameters | Discovery Circumstances | Close-Approach Data ]

Physical Parameter Table
Parameter Symbol Value Units Sigma Reference Notes
absolute magnitude H 16.4 mag n/a PDS3 (MPC 28113)  
diameter diameter 0.55 km n/a Delbo et al. (2003). Icarus, v. 166, pp. 116-130  
rotation period rot_per 5.3375 h n/a Asteroid Lightcurve DataBase (Rev. 2013-May-01) Published Reference List:
[Higgins, D.; Warner, B.D. (2009) Minor Planet Bul. 36, 159-160.]
geometric albedo albedo 0.48   n/a Delbo et al. (2003). Icarus, v. 166, pp. 116-130  
SMASSII spectral type spec_B V   n/a Binzel et al. (2004) Icarus 170, 259-294  

5604 (1992 FE)          Discovered 1992-Mar-26 by McNaught, R. H. at Siding Spring (413)
Reference: DISCOVERY.DBLast Updated: 2003-08-29

[ hide close-approach data ]
Close-Approach Data   ...sorted by Date/Time (TDB)
Date/Time (TDB) Time Uncertainty
(days_HH:MM)
Body Nominal Distance (AU) Minimum Distance (AU) Maximum Distance (AU) V-relative (km/s) V-infinity (km/s) JD (TDB) Time Uncertainty (minutes) Semi-major axis (km) Semi-minor axis (km) range-LOV angle (deg) N-sigma BP Orbit Ref. Reference Modified
1901-Feb-26 22:06 < 00:01 Earth 0.100934226119685 0.100931710205334 0.100936742034816 14.877148363394 14.8753738466401 2415442.420497962 0.0377532662053904 113.857238460844 9.89771925093334 17.9320824116765 388669.36843722 T 87 CATAB v2.0c-linF95 2013-Apr-29 15:37:46 2013-Apr-29 15:37
1901-Oct-10 03:09 < 00:01 Venus 0.147815547743632 0.147812922604881 0.147818172882493 20.9468461840022 20.9461448297009 2415667.631005890 0.0476587619358068 128.556953546662 7.53823711100591 -12.6886683195427 596523.572004346 T 87 CATAB v2.0c-linF95 2013-Apr-29 15:37:46 2013-Apr-29 15:37
1901-Nov-29 13:24 < 00:01 Earth 0.410617957070681 0.410617768169066 0.410618145972332 15.101908487486 15.1014788039036 2415718.058581916 0.489963580473735 8.63107434193886 6.45955235779274 74.1832380010785 7525034.60200598 T 87 CATAB v2.0c-linF95 2013-Apr-29 15:37:46 2013-Apr-29 15:37
1902-Apr-22 10:47 < 00:01 Earth 0.310914517402893 0.310914316922553 0.310914717883689 9.47062915540628 9.46972422897967 2415861.949538863 0.273063756255612 10.4095994360286 6.62705837677333 46.8164517018563 3859975.66759022 T 87 CATAB v2.0c-linF95 2013-Apr-29 15:37:46 2013-Apr-29 15:37
1902-Sep-18 04:41 < 00:01 Earth 0.414857234048338 0.414856958433666 0.414857509663168 14.9315214086027 14.9310912626105 2416010.695376909 0.443990417538076 17.4087467237469 7.15895842368791 58.1635745353172 6090999.86952199 T 87 CATAB v2.0c-linF95 2013-Apr-29 15:37:46 2013-Apr-29 15:37
1903-Jun-19 07:39 < 00:01 Earth 0.0944135718496508 0.0944119502484793 0.0944151934631323 14.1452358634053 14.1432406086104 2416284.818655162 0.0280408448691281 85.0076269048459 7.12747288936582 34.6501298108961 890717.197535459 T 87 CATAB v2.0c-linF95 2013-Apr-29 15:37:46 2013-Apr-29 15:37
1908-Mar-11 01:05 < 00:01 Venus 0.103597431271061 0.103595714585095 0.103599147979774 10.1235778668428 10.1215071040193 2418011.544853194 0.1384958840937 46.1379536589105 5.61338355711297 -11.1087953620808 437373.530358124 T 87 CATAB v2.0c-linF95 2013-Apr-29 15:37:46 2013-Apr-29 15:37
1909-Mar-05 14:40 < 00:01 Earth 0.266780625742744 0.266779138737043 0.26678211274802 20.106761504749 20.1062647737023 2418371.111036153 0.0211810895266301 71.7188578756908 10.5117690567578 5.22371922104764 570947.480218017 T 87 CATAB v2.0c-linF95 2013-Apr-29 15:37:46 2013-Apr-29 15:37
1909-Oct-20 11:17 < 00:01 Venus 0.08521453783804 0.085213299396943 0.0852157762914083 10.6870189224279 10.6846341489016 2418599.970185715 0.048405372737051 39.3138721950212 4.95288046948382 23.5543479746987 769118.873470266 T 87 CATAB v2.0c-linF95 2013-Apr-29 15:37:46 2013-Apr-29 15:37
1909-Dec-21 18:11 < 00:01 Earth 0.358201348099906 0.358201333126872 0.358201363074777 11.5453066778048 11.5446623723875 2418662.257599516 0.265867832086802 10.1108121808844 5.77267094927573 65.2146458898645 6270151.26568331 T 87 CATAB v2.0c-linF95 2013-Apr-29 15:37:46 2013-Apr-29 15:37
1910-Apr-03 14:11 < 00:01 Earth 0.285611555411171 0.285611108176933 0.285612002645607 9.18716930833676 9.18615381082742 2418765.091031299 0.14266532558466 13.4040354062558 8.09248555932454 11.0535500206401 2091286.89540228 T 87 CATAB v2.0c-linF95 2013-Apr-29 15:37:46 2013-Apr-29 15:37
1910-Oct-07 03:54 < 00:01 Earth 0.44018782561212 0.440187737835312 0.440187913389885 16.898921232739 16.8985630373853 2418951.662437942 0.188583185587754 8.20110635837457 6.92710906624592 31.1899707770038 7054431.07658689 T 87 CATAB v2.0c-linF95 2013-Apr-29 15:37:46 2013-Apr-29 15:37
1911-Jun-21 23:13 < 00:01 Earth 0.106031704044326 0.106031099649091 0.106032308444437 9.50560382639078 9.50295985162072 2419209.467179087 0.0152882920674874 22.7233959309352 4.71385193208846 -49.9979934608979 1696879.49161106 T 87 CATAB v2.0c-linF95 2013-Apr-29 15:37:46 2013-Apr-29 15:37
1916-Mar-26 11:51 < 00:01 Venus 0.122548013397264 0.122547558912799 0.122548467881722 20.0552656849874 20.0543821091588 2420948.993659898 0.0108307048519253 22.0414127751292 4.8755414935327 -12.427009820292 1018632.23091985 T 87 CATAB v2.0c-linF95 2013-Apr-29 15:37:46 2013-Apr-29 15:37
1917-Mar-13 03:05 < 00:01 Earth 0.438661045305154 0.438660594897548 0.438661495712833 25.5577358551634 25.5574981914236 2421300.628550494 0.007617533201127 23.935430633087 6.44108829801173 -18.1943699536912 3767995.87665809 T 87 CATAB v2.0c-linF95 2013-Apr-29 15:37:46 2013-Apr-29 15:37
1918-Mar-09 23:14 < 00:01 Earth 0.199491601144273 0.199491265476739 0.199491936812337 8.25441528670944 8.25279704274447 2421662.467740865 0.0623568713726013 9.15208755963802 4.84734585911535 -60.3601497994368 3325570.94913183 T 87 CATAB v2.0c-linF95 2013-Apr-29 15:37:46 2013-Apr-29 15:37
1918-Oct-26 16:26 < 00:01 Earth 0.446592299891725 0.446592182050122 0.446592417733394 17.5804990775639 17.5801597070428 2421893.184974010 0.179823162272543 7.64859031495133 5.24509457500745 -7.98288777652791 7456604.0395069 T 87 CATAB v2.0c-linF95 2013-Apr-29 15:37:46 2013-Apr-29 15:37
1919-May-30 11:31 < 00:01 Earth 0.239845945909565 0.23984527349352 0.239846618326446 8.38646089494893 8.38513614000664 2422108.979685194 0.108705417719404 17.2980842604863 6.34136033404059 -13.448560679081 1447815.78393761 T 87 CATAB v2.0c-linF95 2013-Apr-29 15:37:46 2013-Apr-29 15:37
1919-Aug-13 17:16 < 00:01 Venus 0.140244143380445 0.140242741580007 0.140245545181129 20.57706790235 20.5763153985955 2422184.219674891 0.0233971057629879 68.5483690738558 7.23278343301519 -14.8344974816312 713845.871834811 T 87 CATAB v2.0c-linF95 2013-Apr-29 15:37:46 2013-Apr-29 15:37
1920-Jun-06 12:15 < 00:01 Earth 0.375655791204208 0.375654511071106 0.37565707133725 23.2614030952266 23.261098172914 2422482.010168623 0.0235261018676985 63.8641741466229 8.74532914100624 7.10451348413212 1064358.95632106 T 87 CATAB v2.0c-linF95 2013-Apr-29 15:37:46 2013-Apr-29 15:37
1926-Jan-15 01:53 < 00:01 Venus 0.0878438739081537 0.0878415245411772 0.0878462233162609 10.5559506684181 10.5536085529332 2424530.578537753 0.155408364975035 67.5850971055507 5.64446124185987 -10.3025242379072 326731.00240961 T 87 CATAB v2.0c-linF95 2013-Apr-29 15:37:46 2013-Apr-29 15:37
1926-Feb-24 00:19 < 00:01 Earth 0.0467595066691021 0.0467581318373371 0.0467608815529733 11.0287089610009 11.0235409964897 2424570.513247238 0.0146157161397893 66.7710113181878 8.6410191584037 -49.6350840561074 435866.082682573 T 87 CATAB v2.0c-linF95 2013-Apr-29 15:37:46 2013-Apr-29 15:37
1926-Nov-14 17:26 < 00:01 Earth 0.434264091317449 0.434263864293883 0.434264318341024 16.7634352392893 16.7630692232184 2424834.226512793 0.463972417258899 9.88388605820455 3.78568980276294 18.9702445342626 6954368.32612036 T 87 CATAB v2.0c-linF95 2013-Apr-29 15:37:46 2013-Apr-29 15:37
1927-May-07 17:10 < 00:01 Earth 0.299606786536815 0.299606219534007 0.299607353539771 9.26743861795981 9.26647894451817 2425008.215564264 0.261478522933579 16.4436970085499 7.44757794715901 -12.1310666688689 1885681.40247245 T 87 CATAB v2.0c-linF95 2013-Apr-29 15:37:46 2013-Apr-29 15:37
